Tracking 23611 objects as of 18-Sep-2021
HD Live streaming from Space Station
objects crossing your sky now
Track INSPIRATION-4

AMC-2 (GE-2)

Track AMC-2 (GE-2) now!
AMC-2 (GE-2) is classified as:


NORAD ID: 24713
Int'l Code: 1997-002A
Perigee: 35,989.3 km
Apogee: 36,048.0 km
Inclination: 7.3 °
Period: 1,447.6 minutes
Semi major axis: 42389 km
RCS: 28.4382 m2 (large)
Launch date: January 30, 1997
Source: SOCIETE EUROPEENNE DES SATELLITES (SES)
Launch site: FRENCH GUIANA (FRGUI)

Broadcasting, business, cable; CONUS, Hawaii, Caribbean, southern Canada; 24 Ku- and 24 C-band
aabbcc
Your satellite tracking list
Your tracking list is empty




NASA's NSSDC Master Catalog

Two Line Element Set (TLE):
1 24713U 97002A   21261.56572649 -.00000193  00000-0  00000+0 0  9994
2 24713   7.2548  57.8439 0006920  72.3460 242.2866  0.99474792 40926
Source of the keplerian elements: AFSPC